[[{"header":{"parameterUnit":"m.s-1","parameterCategory":1,"la1":30.2991,"la2":30.254,"lo1":-89.0895,"lo2":-89.0444,"dy":0.0017,"dx":0.0017,"nx":28,"ny":28,"refTime":"2025-07-23T21:00:00:Z","depth":0,"parameterNumber":2,"parameterNumberName":"U-component_of_WINDS"},"data":[0,0,0,0,0,0,0,0,0,0,0,0,0,0,0,0,0,0,0,0,0,0,0,0,0,0,0,0,0,0,0,0,0,0,0,0,0,0,0,0,0,0,0,0,0,0,0,0,0,0,0,0,0,0,0,0,0,0,0.8495,0.8497,0,0.8658,0.8659,0.8661,0.8678,0.8676,0.8675,0.8673,0.8844,0.885,0.8856,0,0,0,0,0,0,0,0,0,0,0,0,0,0.8205,0.821,0.8495,0.8497,0.8499,0.8657,0.866,0.8662,0.8678,0.8676,0.8674,0.8672,0.8842,0.8849,0.8857,0,0,0,0,0,0,0,0,0,0,0,0,0,0.8346,0.8212,0.8495,0.8526,0.8531,0.8657,0.866,0.8662,0.8679,0.8676,0.8674,0.8671,0.884,0.8849,0.8858,0.8965,0,0,0.8886,0.889,0,0,0,0,0,0,0,0,0.8338,0.8356,0.852,0.8524,0.8529,0.8645,0.862,0.8764,0.8679,0.8623,0.8673,0.867,0.878,0.8794,0.883,0.8973,0.898,0.8886,0.8892,0.8896,0.8899,0,0,0,0,0,0,0,0.8328,0.8349,0.8559,0.8522,0.8528,0.8534,0.8552,0.8647,0.8714,0.8627,0.8629,0.8648,0.8782,0.8821,0.8834,0.8983,0.8886,0.8894,0.89,0.8904,0.9223,0.9226,0,0,0,0,0,0,0.8311,0.8341,0.8554,0.8564,0.8425,0.8542,0.8561,0.861,0.8713,0.8726,0.865,0.8648,0.8807,0.8824,0.884,0.8973,0.8896,0.8904,0.891,0.922,0.9224,0.9227,0,0,0,0,0,0,0.8305,0.833,0.8548,0.8453,0.8481,0.8549,0.8605,0.8615,0.8654,0.8729,0.8742,0.8677,0.8806,0.8828,0.8934,0.8979,0.8909,0.8917,0.9216,0.9221,0.9225,0.9238,0,0,0,0,0,0,0.8297,0.8328,0.8368,0.8454,0.8486,0.8636,0.8608,0.862,0.8669,0.8668,0.8758,0.8771,0.8805,0.892,0.8943,0.899,0.8924,0.9213,0.9219,0.9224,0.9234,0.9242,0.925,0,0,0,0,0,0.8286,0.8365,0.8369,0.8395,0.8537,0.8639,0.8658,0.8694,0.8673,0.8714,0.8763,0.8768,0.8971,0.8931,0.8957,0.9008,0.921,0.9217,0.9223,0.923,0.9241,0.925,0,0,0,0,0,0,0.8284,0.8377,0.8383,0.8492,0.8557,0.8641,0.8695,0.8704,0.8778,0.8774,0.8818,0.8839,0.8943,0.8987,0.894,0.9118,0.9088,0.9101,0.9085,0.9095,0.9103,0.909,0.8932,0,0,0,0,0,0.8296,0.8369,0.8447,0.8536,0.8569,0.8626,0.8672,0.8695,0.8765,0.8793,0.885,0.8919,0.8998,0.905,0.9127,0.9241,0.9261,0.9289,0.9297,0.9303,0.9313,0.9378,0.9391,0.9249,0.9249,0.9249,0,0,0.8322,0.8382,0.8425,0.8537,0.8591,0.8667,0.8649,0.8731,0.8788,0.8806,0.8909,0.8953,0.9034,0.9144,0.9196,0.9184,0.9357,0.9312,0.9316,0.9323,0.9386,0.9399,0.9411,0.9253,0.9253,0.9252,0,0,0.8407,0.846,0.8539,0.8593,0.8674,0.8712,0.8732,0.8815,0.8845,0.8949,0.8964,0.9035,0.917,0.9227,0.9274,0.9384,0.9391,0.9408,0.9449,0.9511,0.9522,0.9532,0.9572,0.9585,0.9418,0.9418,0.9418,0,0.8429,0.8543,0.858,0.8661,0.871,0.8729,0.8812,0.8863,0.8965,0.9,0.8985,0.9156,0.9212,0.9336,0.9363,0.94,0.9425,0.9397,0.9517,0.9528,0.9538,0.9576,0.9591,0.9419,0.9419,0.9419,0.9419,0,0.8566,0.8645,0.8701,0.8797,0.8854,0.8935,0.8986,0.9039,0.9058,0.9099,0.9206,0.9273,0.9365,0.9397,0.9416,0.9525,0.9515,0.9508,0.9479,0.9552,0.9589,0.9603,0.9421,0.9421,0.942,0.942,0,0,0.8652,0.877,0.8789,0.8834,0.8926,0.8988,0.9072,0.9161,0.9205,0.9277,0.9348,0.9464,0.9458,0.9511,0.9538,0.9593,0.9676,0.958,0.9583,0.9595,0.9801,0.9804,0.982,0.9682,0.9685,0.9688,0.9794,0,0.8747,0.8893,0.8931,0.9057,0.9131,0.9152,0.9225,0.929,0.9331,0.9402,0.9448,0.9528,0.9515,0.9548,0.9603,0.9654,0.9718,0.9647,0.975,0.9754,0.9728,0.9839,0.9843,0.9939,0.9808,0.9811,0.9813,0,0.8877,0.8949,0.9082,0.9165,0.9198,0.9262,0.9347,0.9414,0.949,0.9516,0.9576,0.9598,0.9688,0.9656,0.9781,0.9732,0.9778,0.9809,0.9814,0.9824,0.9786,0.9851,0.9971,0.9985,0.9835,0.9834,0.9832,0,0.8925,0.9057,0.9153,0.9191,0.9291,0.9336,0.938,0.9453,0.9504,0.958,0.9614,0.9699,0.9746,0.9812,0.9857,0.983,0.9979,0.9951,1.0004,1.0003,1.0033,1.003,1.016,1.0064,1.0064,1.0064,1.0063,0,0.9026,0.9107,0.9176,0.9235,0.9327,0.9371,0.9461,0.9506,0.9571,0.9641,0.9665,0.9731,0.9787,0.9861,0.9897,0.9996,1.0017,1.0041,1.005,1.0038,1.0035,1.0067,1.0061,1.0067,1.0067,1.0066,1.0065,0,0.9094,0.9144,0.9251,0.9337,0.9361,0.9424,0.9499,0.9558,0.9601,0.9689,0.9713,0.978,0.9868,0.992,1.0032,1.0057,1.0166,1.0172,1.0139,1.0143,1.0193,1.0187,1.0347,1.0371,1.026,1.0261,1.0262,0,0.9155,0.9217,0.931,0.9358,0.9402,0.9479,0.9531,0.9579,0.9633,0.9725,0.9774,0.9863,0.9937,1.0078,1.0138,1.0224,1.0232,1.0282,1.0245,1.0232,1.0232,1.0227,1.0233,1.0288,1.0289,1.029,1.029,0,0.9256,0.9278,0.9352,0.9436,0.9497,0.9566,0.9634,0.9672,0.9731,0.9791,0.9881,0.9938,1.0053,1.0142,1.0234,1.0281,1.0296,1.0302,1.0319,1.0307,1.0285,1.0297,1.0155,1.0298,1.0297,1.0296,1.0296,1.0296,0.9322,0.9378,0.9453,0.9535,0.9591,0.9655,0.9715,0.9765,0.9841,0.9936,0.9961,1.0055,1.0132,1.0257,1.0307,1.0383,1.0374,1.0399,1.0405,1.041,1.0411,1.0274,1.04,1.04,1.04,1.04,1.0399,0,0.9424,0.9473,0.9548,0.9642,0.9708,0.9716,0.9793,0.9847,0.9929,0.9999,1.0072,1.0176,1.0264,1.0331,1.0421,1.0469,1.0478,1.0491,1.0487,1.0498,1.0413,1.0389,1.0482,1.0482,1.0482,1.0482,1.0482,1.0482,0.9484,0.958,0.9612,0.9737,0.9787,0.9879,0.9922,0.9981,1.0037,1.0152,1.0224,1.0268,1.0338,1.0433,1.0514,1.0532,1.0564,1.0575,1.0594,1.0513,1.0504,1.0495,1.0473,1.0582,1.0582,1.0673,1.0674,1.0674]},{"header":{"parameterUnit":"m.s-1","parameterCategory":1,"la1":30.2991,"la2":30.254,"lo1":-89.0895,"lo2":-89.0444,"dy":0.0017,"dx":0.0017,"nx":28,"ny":28,"refTime":"2025-07-23T21:00:00:Z","depth":0,"parameterNumber":3,"parameterNumberName":"V-component_of_WINDS"},"data":[0,0,0,0,0,0,0,0,0,0,0,0,0,0,0,0,0,0,0,0,0,0,0,0,0,0,0,0,0,0,0,0,0,0,0,0,0,0,0,0,0,0,0,0,0,0,0,0,0,0,0,0,0,0,0,0,0,0,0.5344,0.5344,0,0.5386,0.5387,0.5387,0.531,0.5308,0.5305,0.5303,0.5353,0.5357,0.5361,0,0,0,0,0,0,0,0,0,0,0,0,0,0.5202,0.5205,0.5344,0.5344,0.5345,0.5386,0.5387,0.5387,0.5311,0.5308,0.5305,0.5302,0.5352,0.5357,0.5361,0,0,0,0,0,0,0,0,0,0,0,0,0,0.5257,0.5206,0.5344,0.5311,0.5309,0.5386,0.5387,0.5388,0.5312,0.5308,0.5304,0.53,0.5351,0.5356,0.5362,0.5474,0,0,0.5379,0.5381,0,0,0,0,0,0,0,0,0.5254,0.5262,0.5316,0.5314,0.5311,0.5339,0.5355,0.5417,0.5313,0.5311,0.5303,0.5298,0.5352,0.5357,0.5374,0.5477,0.5479,0.5379,0.5383,0.5385,0.5387,0,0,0,0,0,0,0,0.525,0.526,0.5361,0.5317,0.5314,0.5297,0.53,0.5367,0.5353,0.5311,0.5305,0.5311,0.535,0.5369,0.5375,0.548,0.5379,0.5384,0.5388,0.539,0.5674,0.5678,0,0,0,0,0,0,0.5249,0.5257,0.5359,0.5362,0.5272,0.5303,0.5306,0.5334,0.5352,0.5351,0.5314,0.5307,0.5361,0.5368,0.5376,0.5507,0.5385,0.5391,0.5394,0.567,0.5675,0.5679,0,0,0,0,0,0,0.5246,0.5259,0.5358,0.5308,0.5319,0.5309,0.5341,0.5337,0.5355,0.5354,0.5352,0.5335,0.5358,0.5368,0.5449,0.5507,0.5393,0.5398,0.5665,0.5671,0.5677,0.577,0,0,0,0,0,0,0.5243,0.5259,0.53,0.5309,0.5322,0.5429,0.5345,0.5341,0.5364,0.5356,0.5374,0.5373,0.5356,0.5441,0.5455,0.5513,0.5403,0.5659,0.5668,0.5675,0.5762,0.5779,0.5793,0,0,0,0,0,0.5238,0.5327,0.5303,0.5315,0.5373,0.5432,0.544,0.5416,0.537,0.5412,0.5411,0.5373,0.5499,0.545,0.5465,0.5526,0.5656,0.5665,0.5674,0.5755,0.5775,0.5793,0,0,0,0,0,0,0.5329,0.5328,0.5301,0.5395,0.5414,0.5419,0.5472,0.544,0.5474,0.5465,0.5437,0.5441,0.5528,0.5535,0.5481,0.5634,0.557,0.5582,0.5626,0.5646,0.5661,0.5657,0.5407,0,0,0,0,0,0.5359,0.5404,0.5402,0.5486,0.5496,0.5483,0.5508,0.5487,0.5507,0.5515,0.5521,0.5543,0.5587,0.5617,0.5658,0.5763,0.5765,0.5812,0.5828,0.5841,0.5852,0.5905,0.5925,0.571,0.571,0.5709,0,0,0.5423,0.5428,0.546,0.5504,0.5516,0.5565,0.549,0.5546,0.5582,0.5525,0.56,0.5605,0.5627,0.572,0.5761,0.5729,0.5911,0.5852,0.5863,0.5867,0.5916,0.5937,0.5955,0.5716,0.5715,0.5714,0,0,0.5564,0.5574,0.5642,0.5655,0.5673,0.5663,0.568,0.569,0.5689,0.5764,0.572,0.5765,0.5842,0.5859,0.5878,0.6023,0.5989,0.6038,0.612,0.6172,0.6189,0.6204,0.6253,0.6272,0.6049,0.6049,0.605,0,0.5643,0.5712,0.5683,0.574,0.576,0.5707,0.5777,0.5792,0.5825,0.584,0.5803,0.5897,0.5909,0.6003,0.6038,0.6057,0.6074,0.6035,0.6188,0.6203,0.6217,0.6263,0.6282,0.6055,0.6054,0.6054,0.6053,0,0.5806,0.5855,0.5909,0.5937,0.5964,0.6028,0.6009,0.604,0.6018,0.6012,0.6088,0.61,0.6141,0.6162,0.6143,0.6253,0.6232,0.6193,0.6127,0.6243,0.6286,0.6304,0.6063,0.6061,0.6059,0.6058,0,0,0.6006,0.6014,0.6034,0.6045,0.606,0.6099,0.616,0.6197,0.6224,0.6248,0.6298,0.6364,0.6326,0.6347,0.6329,0.6375,0.6486,0.6329,0.6329,0.6356,0.6606,0.6634,0.6656,0.6464,0.6467,0.647,0.6603,0,0.6144,0.6245,0.622,0.6322,0.6366,0.6315,0.6369,0.6384,0.6381,0.6419,0.6416,0.6461,0.6409,0.6421,0.6465,0.6463,0.6535,0.6454,0.651,0.6512,0.6503,0.6679,0.6709,0.6835,0.662,0.6623,0.6625,0,0.6318,0.6344,0.6449,0.6454,0.6472,0.652,0.655,0.6588,0.6605,0.6599,0.6621,0.6593,0.6654,0.6588,0.6672,0.6616,0.6638,0.6641,0.6645,0.6648,0.6575,0.6684,0.6875,0.6893,0.6652,0.665,0.6648,0,0.6449,0.6512,0.6582,0.6593,0.6602,0.6636,0.6642,0.6654,0.6678,0.6706,0.672,0.6756,0.6776,0.6804,0.6787,0.6741,0.6872,0.6806,0.6868,0.6869,0.6897,0.6895,0.7092,0.6915,0.6915,0.6914,0.6914,0,0.6605,0.6671,0.664,0.6683,0.6755,0.6726,0.6799,0.6799,0.6811,0.6853,0.6814,0.6855,0.683,0.687,0.6857,0.6926,0.6937,0.6933,0.6928,0.6935,0.6935,0.6948,0.6938,0.6919,0.6918,0.6917,0.6916,0,0.6763,0.6746,0.6818,0.6819,0.6821,0.6874,0.6875,0.6916,0.6908,0.6963,0.6974,0.6963,0.7007,0.6992,0.7041,0.7032,0.712,0.7105,0.7113,0.7109,0.7171,0.7164,0.7381,0.7407,0.7215,0.7217,0.7219,0,0.6862,0.6911,0.6916,0.694,0.6947,0.6988,0.701,0.6984,0.7009,0.703,0.7068,0.7108,0.7139,0.7212,0.7209,0.7246,0.723,0.7303,0.7236,0.724,0.7229,0.7225,0.7229,0.7317,0.7319,0.7321,0.7322,0,0.7039,0.7027,0.7059,0.7088,0.7115,0.7137,0.7156,0.7179,0.7154,0.7184,0.7227,0.7251,0.7298,0.7339,0.7371,0.7378,0.7346,0.7343,0.7359,0.7366,0.7367,0.7365,0.7148,0.7338,0.7337,0.7336,0.7335,0.7334,0.7169,0.7209,0.7217,0.7254,0.7265,0.7283,0.732,0.7315,0.735,0.7384,0.7368,0.7417,0.7432,0.7471,0.7483,0.7522,0.7494,0.7518,0.7523,0.7529,0.7536,0.7363,0.7528,0.7528,0.7527,0.7527,0.7527,0,0.7341,0.7344,0.7378,0.7403,0.7432,0.7397,0.7416,0.7443,0.7486,0.7501,0.7531,0.758,0.7618,0.7617,0.7653,0.7684,0.767,0.7694,0.7691,0.7692,0.756,0.7541,0.7705,0.7705,0.7704,0.7704,0.7704,0.7704,0.7434,0.7498,0.7487,0.7557,0.756,0.7605,0.7619,0.7635,0.7647,0.7702,0.7732,0.7731,0.7739,0.7775,0.7808,0.7807,0.7821,0.785,0.7844,0.772,0.7702,0.7685,0.7667,0.7854,0.7854,0.7972,0.7973,0.7974]}]]